Location: Unspecified
(0.0000°N, 0.0000°E)
Time: 13:27:25
(UTC+00:00)

Explorer 11/Cluster Stage 4 - Pass Details

Date: 19 September 2019
Orbit: 467 x 1259 km, 28.8° (Epoch: 13 October)

Event Time Altitude Azimuth Distance (km) Brightness Sun altitude
Exits shadow 04:52:20 - 337° (NNW) 2,258 8.7 -15.4°
Reaches altitude 10° 04:54:46 10° 3° (N) 1,663 8.3 -14.8°
Maximum altitude 04:56:30 13° 31° (NNE) 1,542 8.5 -14.4°
Drops below altitude 10° 04:58:20 10° 59° (ENE) 1,766 9.4 -13.9°
Sets 05:01:55 0° 88° (E) 2,806 11.5 -13.0°
